Weather in Ust'-Shchuger

Russia / Komi Republic     64°16′01″N   57°37′06″E
temp.,
°C
wind,
m/s
gust,
m/s
humid.,
%
clouds,
%
prec.,
mm/h
press.,
hPa
HPBL,
m
29 july, thu
thu2900:00+6nw1499100 0.6 1005192
03:00+6nw1398100 0.9 1005111
06:00+7n249566 0.0 1005235
09:00+10nne3484100 0.5 1006677
12:00+13nnw236564 0.6 10061179
15:00+13wnw236275 0.9 10051079
18:00+11nnw1280100 0.4 100545
21:00+9nnw1186100 0.4 100513
30 july, fri
fri3000:00+7nne1193100 0.0 100513
03:00+6nne11955 0.0 100413
06:00+10nne12785 0.0 1004308
09:00+15n22526 0.0 10021319
12:00+15nnw2246100 0.1 10021661
15:00+15n2347100 0.1 10021460
18:00+13n2364100 0.0 100391
21:00+11n117050 0.0 100313
31 july, sat
sat3100:00+8wsw008121 0.0 100410
03:00+7sse00855 0.0 100510
06:00+12se116264 0.0 1005239
09:00+17sse22437 0.0 10041062
12:00+20s233723 0.0 10031466
15:00+21s363999 0.0 10021848
18:00+16sse2767100 0.1 1000176
21:00+15sse41279100 0.4 998570
1 august, sun
sun100:00+15sse51296100 1.8 996749
03:00+15sse31098100 4.4 995585
06:00+15ssw13100100 3.9 995169
09:00+17wnw458892 5.1 996716
12:00+14wnw3798100 2.9 997462
15:00+15nw3794100 4.3 1000650
18:00+16w25935 0.3 1002290
21:00+13s229611 0.4 100216
2 august, mon
mon200:00+12sw23989 0.0 100363
03:00+11w23972 0.0 100469
06:00+15w24885 0.0 1005298
09:00+19wsw23632 0.0 1005921
12:00+23sw2448100 0.0 10051639
15:00+22ssw44545 0.1 10051255
18:00+19sw2575100 0.8 1005210
21:00+15s2594100 0.9 1005100